User: anonymous   Login
Location: Unspecified
(0.0000°N, 0.0000°E)
Time: 20:05:07
(UTC+00:00)
Language:

STARLINK-35885 - Orbit

View from above orbital plane
View from above orbital plane
View from above satellite
View from above satellite

Ground track
Ground track

The orbit is defined by the following mean orbital elements,

1 66890U          26145.58335647 +.00000000 +00000-0 +28608-2 0 00007
2 66890  53.1596  26.9269 0003570  81.4687  74.6266 15.34229197    07
Epoch (UTC): 25 May 2026 14:00:01
Eccentricity: 0.0003570
inclination: 53.1596°
perigee height: 461 km
apogee height: 466 km
right ascension of ascending node: 26.9269°
argument of perigee: 81.4687°
revolutions per day: 15.34229197
mean anomaly at epoch: 74.6266°

The dashed part of the orbit path shows where the satellite is in the earth's shadow,  

DLR